Karaganda, Kazakhstan

10:40 AM +06 on April 23, 2018 (GMT +0600)
Karaganda

Weather History for UAKK - October, 2012

Change the Weather History Date:

Saturday, October 13, 2012

  Actual Average Record
Temperature  
Mean Temperature 43 °F -  
Max Temperature 60 °F - - ()
Min Temperature 26 °F - - ()
Degree Days  
Heating Degree Days 22    
Moisture  
Dew Point 22 °F    
Average Humidity 48    
Maximum Humidity 74    
Minimum Humidity 23    
Precipitation  
Precipitation 0.00 in - - ()
Sea Level Pressure  
Sea Level Pressure 30.25 in    
Wind  
Wind Speed 8 mph ()    
Max Wind Speed 18 mph    
Max Gust Speed -    
T = Trace of Precipitation, MM = Missing Value Source: Averaged Metar Reports

Daily Weather History Graph

Daily Weather History Graph

Search for Another Location

Airport or City:

Astronomy

Oct. 13, 2012 Rise Set
Actual Time 7:25 AM +06 6:19 PM +06
Civil Twilight 6:52 AM +06 6:52 PM +06
Nautical Twilight 6:15 AM +06 7:29 PM +06
Astronomical Twilight 5:38 AM +06 8:06 PM +06
Moon 4:32 AM +06 (10/13) 4:56 PM +06 (10/13)
Length of Visible Light 11h 59m
Length of Day
10h 54m
Waning Crescent, 7% of the Moon is Illuminated
Oct 13
Waning Crescent
Oct 15
New
Oct 22
First Quarter
Oct 30
Full
Nov 7
Last Quarter

Hourly Weather History & Observations

Time (+06) Temp. Windchill Dew Point Humidity Pressure Visibility Wind Dir Wind Speed Gust Speed Precip Events Conditions
12:00 AM 33.8 °F 27.9 °F 19.4 °F 56% 30.24 in - East 6.7 mph - N/A   Clear
12:30 AM 32.0 °F 25.7 °F 19.4 °F 60% 30.24 in - East 6.7 mph - N/A   Clear
1:00 AM 33.8 °F 29.7 °F 19.4 °F 56% 30.24 in - East 4.5 mph - N/A   Clear
1:30 AM 32.0 °F - 19.4 °F 60% 30.24 in - Variable 2.2 mph - N/A   Clear
2:00 AM 32.0 °F 25.7 °F 17.6 °F 55% 30.24 in - East 6.7 mph - N/A   Clear
2:30 AM 28.4 °F 21.4 °F 19.4 °F 69% 30.24 in - East 6.7 mph - N/A   Clear
3:00 AM 26.6 °F 19.2 °F 19.4 °F 74% 30.24 in - East 6.7 mph - N/A   Clear
3:30 AM 28.4 °F 19.9 °F 19.4 °F 69% 30.24 in - ENE 8.9 mph - N/A   Clear
4:00 AM 28.4 °F 21.4 °F 19.4 °F 69% 30.24 in - East 6.7 mph - N/A   Clear
4:30 AM 28.4 °F 19.9 °F 17.6 °F 64% 30.24 in - East 8.9 mph - N/A   Clear
5:00 AM 26.6 °F 17.7 °F 17.6 °F 69% 30.24 in - East 8.9 mph - N/A   Clear
5:30 AM 26.6 °F 19.2 °F 17.6 °F 69% 30.24 in - East 6.7 mph - N/A   Clear
6:00 AM 28.4 °F 21.4 °F 17.6 °F 64% 30.24 in - East 6.7 mph - N/A   Clear
6:30 AM 26.6 °F 17.7 °F 17.6 °F 69% 30.24 in - East 8.9 mph - N/A   Clear
7:00 AM 28.4 °F 23.4 °F 17.6 °F 64% 30.24 in - East 4.5 mph - N/A   Clear
7:30 AM 28.4 °F 21.4 °F 17.6 °F 64% 30.24 in - ESE 6.7 mph - N/A   Clear
8:00 AM 28.4 °F 21.4 °F 17.6 °F 64% 30.24 in - East 6.7 mph - N/A   Clear
8:30 AM 35.6 °F 31.8 °F 19.4 °F 52% 30.27 in - East 4.5 mph - N/A   Clear
9:00 AM 39.2 °F 33.1 °F 17.6 °F 42% 30.27 in - East 8.9 mph - N/A   Clear
9:30 AM 42.8 °F 37.6 °F 19.4 °F 39% 30.27 in - East 8.9 mph - N/A   Clear
10:00 AM 48.2 °F - 19.4 °F 32% 30.27 in - East 11.2 mph - N/A   Clear
10:30 AM 51.8 °F - 21.2 °F 30% 30.27 in - East 11.2 mph - N/A   Clear
11:00 AM 55.4 °F - 24.8 °F 31% 30.27 in - East 15.7 mph - N/A   Clear
12:00 PM 57.2 °F - 26.6 °F 31% 30.27 in - East 17.9 mph - N/A   Clear
12:30 PM 57.2 °F - 24.8 °F 29% 30.24 in - East 15.7 mph - N/A   Clear
1:00 PM 59.0 °F - 24.8 °F 27% 30.24 in - East 15.7 mph - N/A   Clear
1:30 PM 59.0 °F - 23.0 °F 25% 30.24 in - East 15.7 mph - N/A   Clear
2:00 PM 60.8 °F - 23.0 °F 23% 30.24 in - East 15.7 mph - N/A   Clear
2:30 PM 60.8 °F - 24.8 °F 25% 30.24 in - East 17.9 mph - N/A   Clear
3:00 PM 60.8 °F - 24.8 °F 25% 30.24 in - East 15.7 mph - N/A   Clear
3:30 PM 60.8 °F - 24.8 °F 25% 30.24 in - East 15.7 mph - N/A   Clear
4:00 PM 60.8 °F - 23.0 °F 23% 30.24 in - East 15.7 mph - N/A   Clear
4:30 PM 60.8 °F - 24.8 °F 25% 30.24 in - East 15.7 mph - N/A   Clear
5:00 PM 60.8 °F - 23.0 °F 23% 30.24 in - East 15.7 mph - N/A   Clear
5:30 PM 57.2 °F - 23.0 °F 27% 30.24 in - East 13.4 mph - N/A   Clear
6:00 PM 55.4 °F - 24.8 °F 31% 30.24 in - East 11.2 mph - N/A   Clear
6:30 PM 51.8 °F - 26.6 °F 38% 30.24 in - East 11.2 mph - N/A   Clear
7:00 PM 48.2 °F - 26.6 °F 43% 30.24 in - East 11.2 mph - N/A   Clear
7:30 PM 41.0 °F 34.4 °F 24.8 °F 53% 30.24 in - East 11.2 mph - N/A   Clear
8:00 PM 37.4 °F 30.9 °F 24.8 °F 60% 30.27 in - East 8.9 mph - N/A   Clear
8:30 PM 39.2 °F 34.4 °F 26.6 °F 61% 30.27 in - ESE 6.7 mph - N/A   Clear
9:00 PM 42.8 °F 35.9 °F 28.4 °F 57% 30.27 in - East 13.4 mph - N/A   Clear
9:30 PM 42.8 °F 37.6 °F 28.4 °F 57% 30.27 in - East 8.9 mph - N/A   Clear
10:00 PM 41.0 °F 35.4 °F 26.6 °F 57% 30.27 in - East 8.9 mph - N/A   Clear
10:30 PM 39.2 °F 33.1 °F 26.6 °F 61% 30.27 in - East 8.9 mph - N/A   Clear
11:00 PM 37.4 °F 29.9 °F 26.6 °F 65% 30.27 in - East 11.2 mph - N/A   Clear
11:30 PM 37.4 °F 29.9 °F 26.6 °F 65% 30.27 in - East 11.2 mph - N/A   Clear